Temperature
-2 -1 -1 -2 -2 -2 -2 -2 -2 -2 -1 -1 -2 -2 -2 -2 -2 -2 -2 -2 -1 -1 -1 -1 -0 0 0 1 1 1 2 2 2 2 3 3 3 3 3 3 3 4 4 4
-2 -1 -1 -2 -2 -2 -2 -2 -2 -2 -2 -2 -2 -2 -2 -2 -2 -3 -3 -2 -2 -2 -2 -1 -1 -1 -0 0 0 0 1 1 2 2 2 2 3 3 3 3 3 3 3 3
-3 -2 -2 -3 -3 -3 -3 -3 -3 -3 -3 -3 -3 -3 -3 -3 -3 -3 -3 -3 -3 -3 -3 -2 -2 -1 -1 -1 -0 -0 0 1 1 1 1 2 2 2 2 2 3 3 3 3
-3 -3 -4 -3 -3 -3 -3 -3 -3 -3 -3 -3 -3 -3 -3 -3 -3 -3 -3 -3 -3 -3 -3 -3 -2 -2 -2 -1 -1 -0 -0 0 0 1 1 1 1 1 2 2 2 2 2 2
-4 -4 -4 -3 -3 -4 -4 -4 -4 -4 -4 -4 -3 -3 -3 -3 -3 -3 -3 -3 -3 -3 -3 -3 -3 -2 -2 -2 -1 -1 -1 -0 0 0 0 0 1 1 1 1 2 2 1 1
-5 -5 -5 -4 -4 -3 -3 -4 -4 -4 -4 -4 -4 -4 -4 -4 -4 -4 -4 -4 -4 -4 -3 -3 -3 -3 -2 -2 -2 -1 -1 -1 -1 -0 -0 -0 0 0 1 1 1 1 1 1
-5 -5 -5 -5 -4 -3 -5 -5 -4 -4 -4 -4 -5 -5 -4 -4 -4 -4 -4 -4 -4 -4 -4 -3 -3 -3 -3 -2 -2 -2 -2 -1 -1 -1 -1 -1 -0 -0 -0 0 0 0 0 0
-6 -6 -6 -5 -5 -5 -5 -5 -5 -5 -5 -5 -5 -5 -4 -5 -5 -5 -5 -4 -4 -4 -4 -4 -4 -4 -3 -3 -3 -3 -2 -2 -2 -1 -1 -1 -1 -1 -1 -1 -1 -0 -0 -0
-7 -6 -5 -5 -5 -5 -5 -5 -5 -5 -5 -5 -5 -5 -5 -5 -5 -5 -5 -5 -5 -5 -4 -4 -4 -4 -4 -4 -4 -3 -3 -2 -2 -2 -2 -2 -2 -2 -2 -1 -1 -1 -1 -1
-7 -6 -6 -5 -5 -5 -5 -6 -6 -6 -6 -6 -6 -6 -6 -6 -6 -6 -6 -6 -6 -5 -5 -5 -5 -4 -4 -4 -4 -4 -3 -3 -3 -3 -3 -2 -2 -2 -2 -2 -2 -2 -2 -2
-7 -7 -6 -6 -6 -6 -6 -6 -6 -6 -6 -6 -6 -7 -7 -7 -7 -7 -7 -6 -6 -6 -6 -6 -5 -5 -5 -5 -4 -4 -4 -4 -3 -3 -3 -3 -3 -3 -3 -3 -2 -2 -2 -2
-8 -7 -7 -7 -6 -6 -6 -6 -7 -7 -7 -7 -7 -7 -7 -7 -7 -7 -7 -7 -7 -6 -6 -6 -6 -5 -5 -5 -5 -5 -4 -4 -4 -4 -4 -4 -3 -3 -3 -3 -3 -3 -3 -3
-7 -7 -7 -7 -7 -7 -7 -7 -7 -7 -7 -7 -7 -7 -7 -7 -7 -7 -7 -7 -7 -7 -7 -7 -6 -6 -6 -6 -5 -5 -5 -5 -5 -5 -5 -4 -4 -4 -4 -3 -3 -3 -3 -3
-7 -7 -7 -7 -7 -7 -7 -7 -7 -7 -7 -7 -7 -7 -7 -7 -7 -7 -8 -8 -7 -7 -7 -7 -7 -6 -6 -6 -6 -6 -6 -5 -5 -5 -5 -5 -5 -4 -4 -4 -4 -4 -4 -4
-7 -7 -8 -8 -8 -8 -8 -8 -8 -8 -8 -8 -8 -8 -8 -8 -8 -8 -8 -8 -8 -7 -7 -7 -7 -7 -7 -6 -6 -6 -6 -6 -6 -6 -5 -5 -5 -5 -5 -5 -5 -5 -5 -4
-8 -8 -8 -8 -8 -8 -8 -8 -8 -8 -8 -8 -8 -8 -8 -8 -8 -8 -8 -8 -8 -8 -8 -8 -8 -7 -7 -7 -7 -6 -6 -6 -6 -6 -6 -6 -6 -5 -5 -5 -5 -5 -5 -5
-8 -8 -8 -9 -9 -9 -9 -9 -9 -9 -9 -9 -9 -9 -9 -9 -8 -8 -8 -8 -8 -8 -8 -8 -8 -8 -8 -7 -7 -7 -7 -7 -6 -6 -6 -6 -6 -6 -6 -6 -6 -6 -6 -5
-9 -9 -9 -9 -9 -9 -9 -9 -9 -9 -9 -9 -9 -9 -9 -9 -9 -9 -9 -9 -9 -8 -8 -9 -8 -8 -8 -8 -8 -8 -7 -7 -7 -7 -7 -7 -7 -7 -6 -6 -6 -6 -6 -6
-9 -9 -9 -9 -9 -9 -9 -9 -9 -9 -10 -9 -9 -9 -10 -10 -10 -10 -10 -9 -9 -9 -9 -9 -9 -9 -8 -8 -8 -8 -8 -8 -7 -7 -7 -7 -7 -7 -7 -7 -7 -6 -6 -6
-9 -9 -9 -9 -10 -10 -10 -10 -10 -10 -10 -10 -10 -10 -10 -10 -10 -10 -10 -10 -10 -10 -10 -9 -9 -9 -9 -9 -9 -8 -8 -8 -8 -8 -8 -8 -8 -7 -7 -7 -7 -7 -7 -7
-9 -9 -10 -10 -10 -10 -10 -10 -10 -10 -10 -10 -10 -11 -11 -11 -11 -11 -10 -10 -10 -10 -10 -10 -9 -9 -9 -9 -9 -9 -9 -9 -8 -8 -8 -8 -8 -8 -8 -8 -7 -7 -7 -7
-10 -10 -10 -10 -10 -10 -10 -10 -10 -10 -11 -11 -11 -11 -11 -11 -11 -11 -11 -11 -10 -10 -10 -10 -10 -10 -10 -10 -9 -9 -9 -9 -9 -9 -9 -9 -8 -8 -8 -8 -8 -8 -8 -8
-10 -10 -10 -10 -10 -10 -10 -11 -11 -11 -11 -11 -11 -11 -11 -11 -11 -11 -11 -11 -11 -10 -10 -10 -10 -10 -10 -10 -10 -9 -9 -9 -9 -9 -9 -9 -9 -9 -9 -8 -8 -8 -8 -8
-10 -10 -10 -11 -11 -11 -11 -11 -11 -11 -11 -11 -11 -12 -12 -11 -11 -11 -11 -11 -11 -11 -10 -10 -10 -10 -10 -10 -10 -10 -10 -10 -9 -9 -9 -9 -9 -9 -9 -9 -9 -8 -8 -8
-11 -11 -11 -11 -11 -11 -11 -11 -11 -11 -12 -12 -12 -12 -12 -12 -12 -12 -11 -11 -11 -11 -11 -11 -10 -10 -10 -10 -10 -10 -10 -10 -10 -10 -10 -9 -9 -9 -9 -9 -9 -9 -9 -9
-11 -11 -11 -11 -11 -12 -12 -12 -12 -12 -12 -12 -12 -12 -12 -12 -12 -12 -12 -11 -11 -11 -11 -11 -11 -10 -10 -10 -10 -10 -10 -10 -10 -10 -10 -10 -10 -9 -9 -9 -9 -9 -9 -9
-11 -11 -11 -11 -12 -12 -12 -12 -12 -12 -12 -12 -12 -12 -12 -12 -12 -12 -12 -12 -11 -11 -11 -11 -11 -11 -11 -11 -11 -11 -10 -10 -10 -10 -10 -10 -10 -10 -10 -9 -9 -9 -9 -9
Wind_Speed
1 2 2 5 6 6 4 1 2 2 2 4 6 5 5 5 5 6 6 7 6 6 6 6 6 5 5 4 3 3 2 2 2 2 2 3 3 4 4 5 5 5 5 5
1 1 4 7 7 5 4 3 1 2 3 5 6 5 6 6 5 6 6 7 7 7 6 6 6 6 6 5 4 3 2 2 2 1 1 2 3 3 4 4 4 5 5 5
2 3 3 5 5 3 3 3 1 1 4 6 7 7 6 5 5 5 6 6 7 7 6 6 6 5 6 5 4 3 3 3 2 1 1 1 2 3 4 4 4 4 5 5
1 3 0 2 3 3 2 4 5 4 6 7 6 5 4 4 4 5 6 6 6 6 6 6 6 6 5 5 4 3 3 3 2 1 1 1 2 3 3 3 3 4 4 5
1 0 2 3 5 5 1 3 6 6 8 8 7 5 4 5 5 5 5 5 5 5 6 6 6 6 5 5 4 4 4 3 3 2 1 1 1 1 2 3 3 3 3 4
1 1 1 4 8 8 0 2 6 7 8 8 7 5 6 8 7 6 6 5 5 5 6 6 6 6 5 4 4 5 5 4 3 1 0 1 1 1 1 2 2 2 2 2
1 1 2 4 9 4 2 4 8 7 7 6 4 4 6 7 6 5 6 6 5 5 5 5 6 6 5 5 5 5 5 4 3 2 0 0 0 1 1 2 2 2 2 1
1 1 3 6 5 2 3 5 6 6 5 5 6 7 7 7 7 6 7 7 6 5 5 5 5 5 5 6 6 5 4 4 4 3 2 1 1 1 1 2 2 2 2 1
2 3 3 2 2 3 4 5 5 6 6 6 6 7 8 8 6 6 6 6 6 5 6 6 6 5 5 6 6 5 4 4 4 4 3 2 1 1 1 1 2 1 1 1
1 3 4 4 4 5 4 5 6 6 6 5 6 7 7 7 6 6 6 6 6 6 6 7 7 6 6 6 6 5 4 4 4 4 3 3 2 1 1 0 1 1 1 1
3 5 6 5 5 6 7 7 6 6 6 5 6 7 7 6 6 6 6 6 5 5 6 7 6 6 6 6 6 5 5 4 4 4 3 3 3 2 1 1 0 1 1 1
4 5 4 7 6 6 6 7 7 7 7 7 6 6 7 6 5 5 5 5 5 6 6 6 6 6 7 6 5 5 4 4 3 3 3 3 3 3 4 3 3 3 2 1
5 6 5 7 6 6 6 7 7 6 6 7 6 6 6 6 5 5 5 6 5 5 6 6 6 6 7 6 6 5 4 4 3 3 3 3 2 2 3 4 4 4 3 3
4 4 5 5 5 6 6 6 6 5 5 6 6 6 6 6 5 6 6 6 5 5 5 6 6 7 7 6 6 5 5 4 4 3 3 2 2 2 2 2 2 2 3 4
5 4 4 5 6 6 6 6 6 7 7 7 6 6 6 6 6 6 6 6 6 5 6 6 6 7 7 6 6 5 5 4 3 3 3 2 2 2 2 2 1 1 2 3
6 5 4 5 6 7 6 5 5 6 6 6 6 6 6 6 5 5 5 5 5 6 6 6 6 7 7 6 6 5 4 6 5 3 3 3 2 2 2 1 1 1 2 2
4 5 6 6 6 6 6 5 5 5 5 6 6 6 6 6 6 6 6 6 5 5 5 5 6 7 6 6 5 4 4 4 6 4 3 2 2 2 2 1 1 1 2 2
4 4 4 5 5 6 6 5 5 5 5 5 6 5 6 6 6 7 7 6 6 6 6 6 6 6 6 5 4 4 4 4 3 3 3 3 2 2 2 1 1 2 2 2
4 4 4 4 4 4 4 4 5 4 5 5 5 5 5 5 5 6 6 6 6 7 7 6 10 7 6 6 6 3 3 4 4 3 3 4 3 3 2 2 2 2 2 2
4 4 4 4 4 3 4 4 4 4 4 4 4 5 5 5 5 6 6 5 4 5 6 7 7 6 6 6 6 3 3 3 3 3 3 3 3 3 2 2 2 2 2 2
4 4 4 4 4 4 4 4 4 4 5 4 4 5 5 6 5 5 5 6 6 7 7 9 6 5 5 5 6 3 3 3 3 3 3 3 3 2 3 3 3 3 3 3
4 4 4 4 4 4 4 4 3 4 4 5 4 4 5 6 6 5 4 4 6 10 7 5 5 7 7 7 3 3 3 3 3 3 3 3 3 3 3 3 3 3 3 3
3 3 4 4 4 4 5 4 4 4 4 5 5 5 5 5 5 5 6 5 5 9 8 5 8 11 10 5 3 3 3 3 3 3 3 3 3 3 3 3 3 3 3 3
3 3 3 3 3 4 5 5 4 4 4 4 4 5 5 5 5 3 4 9 11 11 6 8 12 11 9 4 3 3 3 4 4 3 3 3 3 3 3 3 4 4 4 4
3 3 3 4 4 4 4 5 4 4 4 4 4 5 4 4 4 5 6 7 10 10 6 9 11 11 6 4 4 4 4 4 4 4 3 3 3 3 3 3 4 4 4 4
3 3 3 3 3 3 3 3 3 4 4 5 5 4 4 4 4 5 5 6 7 9 7 5 6 7 5 5 4 4 4 4 4 4 4 4 4 4 4 4 5 4 4 5
3 3 2 3 3 3 3 3 4 4 4 5 5 5 5 5 5 5 5 5 5 6 5 5 5 5 5 5 5 4 4 4 4 4 4 4 4 4 5 5 5 5 5 5
Wind_Direction
301 323 60 37 17 27 53 104 173 254 294 317 334 333 341 353 7 9 5 4 1 355 349 349 350 347 341 335 335 329 320 306 292 273 236 208 205 200 190 186 188 186 185 189
334 14 52 33 13 6 4 11 29 355 331 338 340 360 8 4 8 4 357 356 353 350 347 344 342 339 337 330 330 334 331 313 308 306 276 218 201 185 177 180 183 185 186 189
289 319 11 10 349 356 13 13 29 321 311 337 351 357 353 346 358 352 343 346 348 345 341 335 331 331 333 326 331 335 328 320 316 300 280 243 210 181 176 179 175 183 188 190
322 25 351 255 338 9 28 27 24 14 350 341 327 320 328 347 352 341 339 339 340 341 340 337 333 331 332 336 344 341 336 336 331 303 266 235 188 182 183 173 170 183 187 191
86 114 281 327 345 340 322 349 4 356 342 338 333 336 344 352 346 332 333 334 334 334 334 336 336 333 338 349 354 354 345 336 324 300 251 191 186 190 179 163 163 177 181 183
100 124 264 296 311 313 248 317 338 342 335 334 348 344 321 330 336 340 344 342 341 341 345 345 340 340 350 355 359 350 334 321 323 313 190 172 202 202 161 149 156 154 154 168
111 192 274 309 319 353 78 297 315 320 321 327 325 293 302 320 333 339 341 342 344 347 348 344 342 350 358 357 349 336 333 338 347 353 1 105 68 50 125 130 130 132 135 136
79 146 279 325 4 30 280 298 314 321 325 325 319 320 328 332 337 344 348 350 356 355 348 345 349 358 1 353 342 342 350 0 5 7 5 27 78 72 91 122 127 125 124 123
187 210 270 314 316 298 304 310 316 321 319 323 325 330 335 336 339 343 347 351 355 355 351 351 354 359 356 347 348 352 4 7 6 13 17 30 65 97 106 125 127 127 136 153
291 284 297 313 326 334 332 317 312 316 320 327 326 327 332 333 337 343 345 347 353 357 356 352 351 355 351 346 351 0 4 5 7 11 10 15 19 29 79 143 152 153 157 162
291 303 321 324 329 326 327 328 331 334 335 332 330 330 331 332 335 337 341 344 351 353 349 345 349 354 353 352 357 5 6 5 6 6 5 12 15 17 21 360 246 173 180 178
261 279 282 290 307 322 326 329 330 332 334 336 332 325 328 327 328 331 335 341 348 349 346 345 351 353 353 353 0 9 7 7 7 7 8 10 14 17 31 41 40 43 48 80
265 288 279 284 306 321 319 321 327 329 324 326 329 326 327 325 328 330 335 339 339 338 339 343 349 351 350 350 356 5 3 357 357 2 5 3 7 13 10 19 34 38 38 39
299 309 303 310 312 321 322 322 326 329 329 326 325 328 329 329 333 337 335 332 332 336 341 344 346 346 347 350 354 358 358 354 353 353 356 357 356 356 357 4 3 5 12 15
322 318 291 301 315 323 324 328 335 335 334 337 338 338 338 337 333 330 330 335 339 344 348 349 349 345 347 350 352 353 353 353 350 351 353 355 353 355 356 358 357 353 358 357
313 319 319 323 326 329 334 336 334 331 335 338 341 341 338 334 330 332 338 346 349 345 344 346 344 340 343 347 348 348 347 349 352 350 354 353 349 350 348 350 360 358 342 333
316 322 325 325 325 328 330 329 327 327 334 340 338 338 343 348 348 349 348 347 342 335 338 341 336 336 340 344 343 340 340 342 348 349 352 349 341 334 329 336 339 331 322 326
280 283 292 297 305 315 323 329 331 334 337 334 337 344 350 351 346 341 340 341 345 347 343 337 335 336 337 337 337 334 337 340 342 342 344 343 338 336 339 336 325 322 327 332
311 306 310 314 312 312 316 322 328 332 334 337 342 344 342 340 337 335 337 343 347 343 337 335 340 342 333 332 339 330 337 339 340 339 337 337 340 341 339 334 328 320 325 332
322 325 324 326 332 332 327 328 331 335 336 339 343 344 343 339 336 337 338 335 326 316 320 331 337 334 328 329 336 331 335 334 334 334 335 333 330 329 329 329 329 324 322 320
320 325 328 331 334 334 332 331 333 333 336 341 342 336 332 331 332 334 337 334 331 330 335 338 339 327 324 330 335 332 329 327 325 323 322 319 315 316 319 320 318 315 308 304
314 319 321 324 330 330 332 333 331 330 334 336 336 333 334 336 337 335 324 311 318 331 338 333 329 330 335 340 344 334 327 323 319 316 314 314 310 304 304 306 303 304 301 296
307 308 312 317 320 321 326 330 330 332 330 330 331 331 330 326 327 329 328 325 324 332 337 330 332 338 344 353 344 333 328 324 319 314 310 308 308 304 299 295 294 296 294 293
309 312 312 315 324 330 330 328 327 328 322 320 323 324 325 327 327 320 308 320 331 333 333 331 337 341 347 351 337 331 327 324 319 313 310 310 309 306 302 298 296 294 291 290
312 314 320 327 327 320 314 318 324 326 326 327 325 326 324 319 314 317 319 322 328 334 333 335 339 342 345 332 328 324 319 312 311 314 314 312 309 305 301 298 295 294 292 287
312 311 308 307 305 308 314 320 325 326 328 329 329 326 325 322 315 316 319 321 322 331 333 328 330 335 333 327 324 322 319 317 318 317 309 305 303 302 300 299 295 291 289 287
316 317 319 323 322 318 316 317 318 321 323 320 319 323 325 325 325 326 325 326 327 328 327 327 328 328 326 325 323 321 318 316 313 309 306 302 298 295 294 294 292 290 289 288
Height
1496 1493 1493 1492 1492 1490 1490 1491 1493 1492 1490 1487 1486 1484 1481 1479 1477 1475 1473 1471 1470 1468 1466 1464 1463 1462 1460 1459 1458 1457 1457 1457 1457 1458 1459 1460 1462 1463 1465 1466 1468 1470 1472 1473
1497 1492 1492 1493 1493 1492 1492 1492 1493 1491 1491 1489 1487 1484 1481 1479 1477 1476 1474 1472 1470 1467 1465 1463 1462 1460 1458 1457 1456 1455 1454 1454 1454 1455 1456 1457 1458 1459 1461 1463 1464 1466 1468 1469
1499 1495 1493 1499 1499 1496 1495 1495 1495 1495 1495 1490 1487 1484 1482 1480 1478 1476 1474 1472 1469 1467 1465 1462 1461 1459 1457 1455 1453 1452 1451 1451 1451 1452 1452 1453 1455 1456 1457 1459 1460 1462 1463 1465
1501 1501 1507 1505 1500 1498 1497 1496 1495 1494 1492 1490 1487 1485 1482 1480 1478 1475 1473 1471 1468 1466 1464 1461 1459 1457 1455 1453 1451 1450 1449 1449 1449 1449 1449 1450 1451 1452 1454 1455 1457 1458 1459 1461
1505 1508 1505 1502 1500 1500 1499 1498 1497 1495 1492 1489 1486 1483 1481 1480 1478 1475 1472 1470 1468 1465 1463 1460 1458 1456 1454 1451 1449 1448 1447 1446 1446 1446 1446 1447 1447 1449 1450 1451 1453 1454 1456 1458
1509 1509 1510 1508 1501 1497 1499 1499 1497 1495 1492 1489 1486 1485 1482 1479 1476 1474 1471 1468 1466 1464 1461 1459 1457 1454 1452 1450 1448 1446 1446 1445 1444 1444 1444 1444 1445 1446 1447 1448 1449 1451 1452 1454
1511 1512 1509 1507 1501 1498 1505 1505 1498 1495 1492 1489 1487 1486 1483 1478 1475 1472 1469 1467 1464 1462 1460 1458 1456 1453 1451 1449 1447 1446 1445 1443 1442 1442 1442 1442 1443 1444 1444 1445 1447 1448 1449 1451
1513 1515 1515 1505 1502 1504 1505 1500 1497 1494 1491 1489 1486 1483 1480 1477 1473 1470 1467 1465 1463 1461 1459 1457 1455 1452 1450 1448 1446 1445 1443 1442 1440 1440 1440 1441 1441 1442 1442 1443 1444 1445 1446 1448
1515 1515 1509 1506 1505 1504 1502 1499 1496 1494 1491 1488 1484 1481 1478 1475 1472 1469 1467 1464 1462 1460 1458 1456 1454 1452 1449 1447 1446 1444 1442 1441 1439 1439 1439 1439 1440 1440 1440 1441 1442 1443 1444 1445
1512 1509 1507 1505 1504 1502 1500 1498 1495 1492 1489 1486 1483 1480 1477 1474 1471 1468 1466 1463 1461 1459 1457 1455 1453 1451 1449 1447 1445 1443 1442 1440 1439 1438 1438 1438 1438 1439 1439 1440 1441 1441 1443 1443
1512 1509 1506 1503 1502 1500 1498 1495 1492 1490 1488 1485 1482 1479 1476 1473 1470 1468 1465 1463 1461 1459 1456 1454 1452 1450 1449 1447 1445 1443 1441 1440 1439 1439 1438 1438 1438 1438 1439 1439 1440 1441 1441 1442
1512 1509 1507 1504 1501 1499 1496 1493 1491 1488 1485 1483 1481 1477 1474 1472 1469 1467 1465 1463 1460 1458 1456 1453 1451 1450 1448 1447 1445 1443 1441 1440 1440 1439 1438 1438 1437 1438 1438 1439 1439 1440 1441 1441
1509 1506 1504 1502 1499 1497 1494 1492 1489 1487 1484 1481 1478 1476 1473 1471 1468 1466 1464 1462 1459 1457 1455 1453 1451 1450 1448 1447 1445 1443 1442 1441 1440 1439 1438 1438 1437 1437 1437 1438 1438 1439 1439 1439
1507 1505 1502 1499 1497 1495 1492 1490 1487 1485 1482 1480 1477 1474 1472 1469 1467 1465 1463 1461 1459 1457 1454 1452 1451 1449 1448 1446 1445 1443 1442 1441 1440 1439 1438 1438 1437 1437 1437 1437 1437 1437 1438 1438
1505 1503 1501 1498 1495 1493 1490 1487 1485 1482 1480 1477 1475 1472 1470 1468 1465 1463 1462 1460 1458 1456 1453 1452 1450 1448 1447 1446 1445 1443 1442 1440 1440 1439 1438 1438 1437 1437 1437 1437 1437 1437 1437 1437
1502 1501 1498 1496 1493 1491 1488 1485 1483 1480 1478 1475 1473 1471 1469 1466 1464 1462 1460 1458 1456 1454 1452 1451 1449 1448 1447 1445 1444 1443 1442 1441 1440 1439 1438 1437 1437 1436 1436 1436 1436 1436 1436 1436
1500 1498 1495 1493 1491 1488 1486 1484 1481 1479 1477 1474 1472 1470 1467 1465 1463 1461 1459 1457 1455 1453 1452 1450 1448 1447 1446 1445 1443 1442 1441 1440 1439 1438 1437 1436 1436 1436 1436 1435 1435 1435 1435 1435
1499 1497 1495 1492 1490 1487 1484 1482 1480 1478 1475 1473 1471 1468 1466 1463 1461 1459 1457 1455 1454 1452 1451 1449 1447 1446 1444 1443 1442 1441 1440 1438 1437 1436 1436 1435 1435 1435 1434 1434 1434 1434 1433 1433
1497 1495 1493 1490 1488 1486 1483 1481 1478 1476 1474 1472 1469 1467 1465 1463 1460 1458 1456 1454 1452 1450 1449 1447 1446 1444 1443 1441 1440 1439 1438 1437 1436 1435 1435 1434 1433 1433 1433 1432 1432 1432 1432 1431
1495 1493 1491 1488 1486 1484 1481 1479 1477 1475 1472 1470 1468 1466 1463 1461 1459 1457 1455 1453 1451 1449 1447 1445 1444 1442 1441 1440 1438 1437 1436 1435 1434 1433 1433 1432 1431 1431 1431 1430 1430 1430 1429 1429
1493 1491 1489 1487 1484 1482 1480 1478 1475 1473 1471 1469 1466 1464 1462 1460 1458 1456 1453 1451 1450 1448 1446 1444 1442 1440 1439 1438 1437 1435 1434 1433 1432 1431 1431 1430 1429 1429 1428 1428 1428 1427 1427 1427
1491 1489 1487 1485 1483 1481 1479 1476 1474 1472 1469 1467 1465 1463 1460 1458 1456 1454 1452 1451 1448 1446 1445 1443 1441 1439 1437 1436 1435 1434 1433 1431 1430 1429 1428 1428 1427 1427 1426 1426 1425 1425 1424 1424
1489 1487 1485 1483 1481 1479 1477 1475 1472 1470 1468 1466 1463 1461 1459 1457 1455 1452 1450 1449 1447 1445 1443 1441 1440 1438 1436 1435 1433 1432 1431 1429 1428 1427 1426 1425 1425 1424 1424 1423 1423 1422 1421 1421
1487 1486 1484 1482 1480 1477 1475 1473 1471 1469 1467 1464 1462 1460 1458 1455 1453 1452 1450 1448 1446 1444 1442 1440 1438 1436 1435 1433 1432 1430 1429 1428 1426 1425 1424 1423 1423 1422 1421 1421 1420 1419 1419 1418
1485 1483 1481 1479 1477 1475 1473 1471 1469 1467 1465 1463 1461 1459 1456 1454 1452 1450 1448 1446 1444 1442 1440 1438 1436 1435 1433 1431 1430 1428 1427 1426 1425 1423 1422 1421 1420 1419 1419 1418 1417 1416 1415 1415
1483 1481 1479 1477 1476 1474 1472 1470 1467 1465 1463 1460 1459 1457 1455 1453 1451 1448 1446 1445 1443 1441 1439 1437 1435 1433 1431 1430 1428 1427 1425 1424 1423 1421 1420 1419 1418 1417 1416 1415 1414 1413 1412 1411
1481 1479 1477 1475 1474 1472 1470 1468 1466 1463 1461 1459 1456 1455 1453 1451 1449 1447 1445 1443 1441 1439 1437 1435 1433 1431 1430 1428 1426 1425 1423 1422 1421 1419 1418 1417 1416 1414 1413 1412 1411 1410 1409 1408